Theta_e
308 309 309 310 310 311 309 312 316 317 315 322 325 325 323 324 324 324 323 324 323 321 319 321 326 326 323 324 322 324 335 337 334 334 333 329 331 328 328 331 332 332 328 331 336
309 308 309 308 309 309 307 311 314 317 317 314 323 323 323 323 323 323 323 323 323 322 319 322 326 326 326 324 325 328 336 335 331 331 332 329 331 330 333 333 334 335 333 334 338
308 308 308 308 309 306 307 309 313 317 316 315 319 322 322 323 318 323 323 323 323 321 319 322 325 325 327 324 325 325 333 326 325 326 330 330 330 330 333 334 332 332 333 334 338
307 307 307 308 309 304 307 309 312 317 316 316 318 321 320 319 325 319 322 322 321 320 319 322 325 327 328 328 324 327 324 324 323 323 327 330 329 331 332 331 327 332 331 333 336
306 305 307 306 306 307 308 310 313 316 315 315 317 319 320 319 319 323 323 322 321 320 319 322 326 327 328 326 325 326 325 323 322 322 326 325 328 331 331 324 326 329 332 334 333
305 306 305 304 304 307 307 309 313 316 315 316 316 318 319 321 316 320 322 324 320 320 321 322 325 325 327 326 325 323 324 324 323 323 323 327 325 325 328 326 329 332 333 333 332
304 304 305 304 305 305 307 306 312 315 316 315 315 318 318 317 315 314 321 321 323 320 323 324 324 325 325 326 322 323 326 325 325 324 324 324 327 328 324 325 328 331 333 333 333
304 304 303 303 304 305 305 305 309 314 316 315 314 317 315 316 315 320 320 323 325 324 321 324 324 325 325 324 323 325 325 326 323 324 323 325 335 328 322 325 328 330 332 332 332
303 304 303 301 303 303 304 304 307 313 315 316 315 315 312 309 313 317 319 322 324 325 323 324 323 326 325 326 328 325 329 326 324 322 324 325 330 322 320 322 326 327 329 330 330
304 304 304 301 302 302 305 304 307 313 315 315 314 312 311 312 310 314 318 322 323 325 325 324 325 325 325 324 325 327 327 325 325 321 323 325 325 323 320 320 323 323 323 323 324
305 304 303 301 302 301 305 304 312 313 314 315 314 313 312 311 313 315 319 322 323 322 320 325 325 326 324 323 321 322 323 323 321 319 321 323 325 324 322 321 323 323 322 322 321
305 304 303 302 301 302 305 307 310 310 316 312 313 313 311 312 315 314 319 320 321 320 323 323 322 321 322 323 321 321 322 323 321 319 321 321 322 321 320 319 319 320 320 320 319
305 305 304 302 304 303 305 307 308 310 309 314 313 314 313 312 315 316 317 319 318 321 319 320 319 318 321 324 324 324 322 322 320 321 319 319 320 319 317 317 317 317 318 318 319
304 305 304 302 302 304 304 304 307 308 313 314 314 314 313 313 315 315 315 317 319 319 318 317 317 319 320 322 323 326 323 323 324 324 324 318 323 320 317 315 313 314 315 315 314
305 304 304 302 300 302 302 303 305 308 317 310 312 311 312 315 316 317 314 315 316 319 319 316 319 321 321 319 321 319 322 322 322 322 323 321 321 318 314 313 312 312 310 312 312
303 304 303 300 300 299 303 305 305 312 314 313 313 315 315 314 316 316 315 314 315 317 314 314 312 318 319 319 319 319 320 320 321 321 319 314 315 311 311 311 311 311 312 312 311
304 304 302 300 301 302 304 306 310 313 306 313 313 315 316 316 318 316 316 316 319 320 318 316 316 314 315 320 318 319 317 321 322 322 313 313 317 311 311 310 311 311 313 311 310
304 303 301 300 302 304 303 306 310 303 309 309 312 315 317 316 317 317 317 317 315 314 318 318 319 316 314 318 320 319 315 318 317 319 314 313 315 314 313 312 312 310 310 309 310
303 302 301 303 303 302 305 307 307 304 307 310 312 316 315 314 316 317 317 317 316 313 318 318 316 314 313 313 318 319 319 313 314 310 317 315 314 313 313 313 310 310 308 311 310
301 300 301 301 301 299 306 303 303 304 305 310 313 312 315 315 315 317 316 314 316 314 312 313 317 312 313 313 314 318 316 318 319 320 318 314 312 313 312 311 310 310 311 310 309
299 299 301 301 299 300 303 299 300 301 305 308 309 313 312 315 313 314 314 311 313 315 314 313 314 315 315 316 316 316 318 317 317 316 316 314 312 311 312 311 311 311 311 311 310
298 302 300 298 302 295 300 295 299 303 303 306 307 309 310 312 314 312 315 312 309 312 315 313 315 317 315 311 312 314 316 317 321 320 318 316 314 308 309 309 309 309 308 309 310
297 299 300 296 301 299 294 297 297 301 302 305 307 305 305 308 311 311 310 306 308 311 314 314 317 317 316 314 312 315 315 316 316 316 321 318 316 308 307 308 307 309 309 308 309
300 302 300 294 290 298 297 298 299 298 301 304 304 303 305 305 304 308 308 307 306 308 308 312 315 314 312 312 312 315 315 316 317 321 318 318 315 312 311 311 310 309 309 310 310
297 299 294 300 299 297 297 297 298 301 299 300 304 304 304 305 304 305 306 306 306 307 308 310 314 313 312 312 313 313 313 314 317 317 317 315 315 314 313 313 313 312 311 310 309
298 297 291 291 294 298 296 297 299 297 300 300 301 303 303 302 300 303 303 304 306 306 309 308 311 312 313 313 313 312 312 313 313 314 315 315 316 313 313 313 311 311 311 311 310
293 292 298 295 295 299 299 297 298 298 297 298 299 300 302 300 299 299 298 300 302 305 307 308 309 308 310 310 308 310 308 309 311 313 314 315 315 313 313 312 311 311 310 310 309
Wind_Speed
10 13 12 10 9 11 9 10 10 9 8 7 8 9 9 10 11 10 6 6 11 17 17 13 9 12 7 2 3 2 5 8 9 13 9 12 10 4 1 8 3 3 0 2 20
11 11 12 14 12 11 10 10 10 11 10 12 6 7 6 7 4 8 7 7 12 17 10 9 8 8 3 4 1 2 5 8 5 7 12 16 11 12 7 8 5 5 5 14 20
11 11 11 12 13 12 12 11 11 13 11 8 10 11 8 9 2 4 11 13 13 12 5 2 3 4 3 3 5 3 1 3 4 3 9 15 10 8 6 7 6 10 12 17 19
12 12 10 11 10 13 11 12 12 14 12 12 13 13 15 14 4 4 8 10 8 7 3 0 4 4 3 4 5 2 3 2 2 4 8 12 11 8 9 2 2 4 14 19 17
14 13 10 9 10 9 9 9 12 13 14 14 15 14 10 4 5 5 7 8 7 3 3 2 4 2 2 5 7 3 3 3 3 4 7 9 7 7 9 3 1 7 13 15 15
12 13 11 12 12 10 6 6 10 11 15 15 16 17 7 7 7 9 8 6 8 7 3 8 2 6 4 5 6 3 2 2 2 4 5 8 3 3 7 6 5 9 13 14 14
12 14 12 13 11 11 6 4 6 10 15 15 15 15 7 10 6 10 9 7 6 9 4 2 10 4 8 2 5 2 1 1 2 2 3 4 3 9 3 7 7 8 9 11 13
13 14 11 9 10 10 6 5 6 10 12 16 16 11 5 10 6 9 11 10 8 6 7 6 6 7 4 3 3 2 1 4 1 1 3 4 14 8 4 6 8 7 9 10 12
16 16 13 9 9 10 10 5 9 8 12 17 13 7 4 6 9 9 12 8 9 7 7 10 4 3 4 8 2 1 6 4 1 3 2 4 6 2 1 4 6 6 6 6 8
18 17 14 10 9 8 9 8 9 8 10 18 8 3 6 6 7 13 12 15 4 8 5 3 2 5 5 8 10 7 8 4 6 4 1 1 11 2 5 3 7 7 7 7 9
21 18 16 11 9 7 7 3 4 5 7 2 9 2 6 9 12 10 13 8 6 3 6 4 6 13 15 13 6 3 2 5 1 3 2 5 11 13 4 6 9 10 9 9 11
23 20 17 11 8 6 9 2 2 2 4 1 7 3 4 4 5 5 12 7 7 9 8 4 9 2 3 6 9 8 7 5 2 2 3 4 9 13 10 9 10 11 13 15 15
24 21 18 12 8 7 9 6 4 8 3 5 4 3 5 6 5 10 9 7 8 12 14 10 1 8 6 7 11 11 13 9 7 1 2 7 15 10 3 6 9 13 16 17 17
25 20 18 15 6 6 7 8 7 1 3 5 7 3 2 6 4 1 2 3 3 10 11 5 5 10 10 12 12 15 8 9 6 3 7 3 7 5 5 7 8 13 12 9 10
24 21 21 17 7 6 5 9 6 6 5 3 4 1 3 4 17 5 1 3 9 7 6 6 9 12 10 7 10 4 7 6 4 6 5 9 6 3 2 6 13 8 1 2 4
23 22 24 10 5 4 11 14 5 3 4 4 6 6 6 3 3 7 5 5 4 6 6 4 2 2 3 3 10 13 10 7 4 2 6 9 8 8 6 10 4 4 4 5 5
24 26 18 6 2 13 13 7 2 2 3 4 4 7 6 5 6 10 12 9 6 8 8 3 2 1 2 9 3 6 13 4 4 4 6 4 6 7 6 10 8 5 7 4 6
30 27 14 2 14 13 2 4 3 1 1 3 3 10 3 7 3 6 14 9 1 4 10 9 5 9 6 5 9 11 9 4 7 6 5 4 7 2 12 9 4 7 6 6 5
29 21 7 9 10 2 2 5 1 2 3 3 9 4 4 3 4 5 8 10 8 5 4 6 2 3 2 1 6 6 7 1 0 2 2 6 6 9 10 12 6 5 3 2 1
20 11 6 6 1 4 2 5 1 2 4 4 4 2 3 7 6 8 7 2 4 7 2 4 5 0 2 0 0 3 9 3 1 3 6 5 5 8 6 10 4 7 4 4 2
17 3 5 4 1 5 2 2 2 4 7 6 4 3 3 4 4 8 6 3 4 8 5 1 3 3 6 8 12 5 5 3 4 3 3 4 4 6 14 9 10 8 4 3 4
5 3 2 2 2 1 2 1 3 1 3 3 4 5 4 3 4 4 4 4 5 3 9 5 4 4 2 2 1 7 8 9 3 4 4 3 7 0 5 8 6 4 5 7 6
3 2 5 4 2 2 2 1 1 2 4 3 4 5 4 3 3 2 5 2 7 4 5 4 4 4 2 3 1 4 7 11 3 2 8 5 3 4 4 2 4 5 2 5 7
4 3 2 3 1 5 4 1 2 4 3 3 4 2 3 3 5 3 4 2 4 4 6 2 2 1 6 3 0 8 9 14 13 7 6 17 15 8 5 3 7 7 8 11 11
3 2 1 3 1 3 2 2 2 2 3 5 3 1 3 4 2 3 3 3 2 3 3 3 2 2 3 4 3 4 3 11 19 19 12 14 19 16 16 15 16 13 10 9 11
3 4 2 2 2 5 2 3 5 2 2 1 3 2 4 2 3 4 6 3 2 3 5 4 3 4 5 7 10 7 11 12 11 15 21 22 30 20 19 14 10 11 12 13 11
3 3 2 1 3 3 3 6 7 5 1 3 3 4 4 3 2 4 4 4 3 4 5 7 5 3 2 4 5 6 15 16 14 14 15 17 24 19 18 13 12 12 10 10 8
Wind_Direction
280 278 271 285 298 308 317 292 275 254 250 223 160 183 181 190 209 219 226 187 261 302 322 340 4 9 38 59 18 287 196 187 169 175 149 157 170 160 101 146 164 153 180 79 151
278 275 276 270 283 298 304 301 278 246 241 226 170 135 167 147 157 231 210 218 256 309 318 8 14 15 43 5 49 298 226 179 157 157 162 166 172 160 179 167 171 156 112 137 153
271 271 269 270 272 282 281 299 277 234 229 219 195 167 155 140 31 239 228 238 273 286 275 99 14 55 45 346 8 28 343 152 142 149 170 159 161 156 174 190 190 176 154 158 168
272 258 265 262 256 266 281 281 272 232 215 206 193 171 152 133 196 229 229 237 244 271 300 95 31 65 35 9 356 136 44 328 121 142 153 169 144 171 193 90 6 155 161 165 180
271 245 246 260 259 254 268 263 263 226 208 203 192 169 139 130 243 170 189 219 198 262 329 340 44 90 87 358 343 31 30 27 35 129 133 141 167 177 195 144 73 151 164 182 189
262 233 245 265 254 241 263 272 251 235 204 202 191 173 166 190 173 177 156 160 181 161 173 209 170 116 49 1 337 358 31 46 37 112 115 161 149 200 194 174 147 169 182 189 197
244 232 248 249 242 241 243 284 270 230 207 200 189 177 195 202 175 182 171 157 164 155 141 266 129 101 119 299 338 340 198 55 70 51 97 143 174 219 139 185 183 186 188 197 204
240 231 241 232 237 237 244 298 287 224 211 197 184 171 213 201 164 172 162 139 127 130 164 171 133 93 133 125 17 222 237 202 113 0 46 228 210 201 154 195 197 194 205 208 214
231 225 229 229 230 229 233 258 286 241 209 184 169 182 215 176 199 171 166 148 122 101 117 135 10 102 152 157 331 306 211 184 261 61 341 229 227 74 162 233 220 217 229 237 248
223 220 220 226 212 222 222 232 271 211 193 163 141 108 180 190 162 178 168 149 118 125 104 126 168 179 171 184 188 195 212 203 219 48 208 212 256 180 45 271 263 269 266 265 264
217 215 215 214 210 222 211 225 201 220 195 190 161 176 132 124 130 169 160 125 126 150 168 164 192 205 199 192 184 148 200 238 309 66 292 242 261 270 290 278 268 265 272 268 262
210 207 203 198 197 199 186 230 311 355 118 189 154 115 141 146 121 162 163 142 167 178 147 147 214 135 216 180 168 185 208 227 251 58 281 278 269 277 267 257 256 267 267 264 268
202 199 193 180 175 187 191 204 16 145 75 161 167 139 154 168 134 164 180 132 158 166 189 195 143 164 162 178 189 209 214 209 248 283 175 296 268 241 255 246 252 255 253 260 265
193 188 180 167 163 183 215 210 353 215 173 166 170 213 161 169 81 219 127 120 128 167 159 190 136 170 170 203 199 216 207 205 197 244 253 354 278 233 256 269 258 252 246 275 292
184 177 173 170 159 185 207 163 295 270 166 162 152 130 270 171 130 170 211 89 142 132 168 150 172 146 175 209 186 225 172 189 211 239 282 226 262 235 304 267 247 257 46 76 324
170 169 167 161 128 202 148 141 189 165 152 193 135 178 138 154 94 130 152 69 103 92 75 88 34 163 135 123 171 134 117 80 76 157 247 230 236 247 211 241 272 119 12 338 330
160 165 155 138 158 149 149 109 63 327 338 149 166 158 143 132 120 151 160 161 148 137 159 121 77 97 132 106 111 180 165 147 196 210 250 149 221 276 262 248 254 302 316 338 340
151 152 135 142 148 157 167 85 247 245 241 308 165 147 148 133 66 139 152 164 160 86 144 166 180 182 175 190 178 179 194 186 212 208 228 173 234 229 232 261 259 279 274 299 292
139 120 104 126 162 280 189 140 356 151 300 207 137 176 147 82 134 144 163 177 177 183 131 159 188 177 163 129 164 171 205 127 111 124 265 229 238 275 257 263 255 239 222 125 171
105 92 39 101 115 17 60 99 65 271 284 210 125 22 141 151 149 152 141 171 150 195 42 152 122 61 126 92 209 205 151 159 223 209 243 237 260 246 197 221 167 158 130 173 198
83 75 38 36 342 46 65 99 314 327 330 22 70 91 99 118 142 157 149 76 149 195 175 109 39 93 156 205 191 163 181 186 178 205 235 268 243 220 225 157 159 145 182 182 199
90 85 94 316 56 42 95 168 357 336 314 78 67 65 56 81 97 111 131 70 344 149 180 170 168 160 160 83 354 229 216 186 189 196 242 331 256 315 219 174 149 179 215 229 239
86 56 330 352 123 86 349 10 284 20 32 37 60 44 75 63 113 79 97 12 41 67 141 149 183 145 144 279 188 217 208 219 202 8 219 221 246 356 220 192 208 262 330 288 281
116 114 341 53 344 127 141 106 90 357 54 40 114 96 104 66 36 117 104 93 40 91 55 41 133 276 214 100 325 205 211 218 210 229 213 236 253 220 202 229 266 259 255 250 273
28 74 16 156 179 102 77 125 114 102 17 19 42 78 100 124 75 103 100 93 44 90 60 87 99 71 351 303 296 262 243 240 228 236 236 261 254 253 253 258 263 268 270 267 271
130 144 81 91 159 128 351 205 175 173 164 170 140 125 68 91 29 155 136 164 115 162 162 159 165 191 202 185 218 232 246 223 246 250 253 259 265 271 272 275 248 258 268 274 276
104 96 103 136 149 154 203 178 198 161 96 57 140 109 139 122 73 66 64 86 87 150 156 168 148 160 225 183 261 256 226 223 224 212 222 242 255 268 275 264 266 263 265 268 283